This is the latest recevied weather packets stored in our database for station/object K9VSK-9. If no packets are shown the sender has not sent any weather packets the latest 1 day(s).
| Time | Temp. | Humidity | Pressure | Rain* | Wind** | Luminosity | Snow |
|---|---|---|---|---|---|---|---|
| 1778035782 | 10° C | 78% | 1011.9 hPa | 0 mm | 0 m/s | - | - |
| 1778035481 | 10° C | 74% | 1012 hPa | 0 mm | 0.89 m/s, 355° | - | - |
| 1778035181 | 10° C | 72% | 1011.9 hPa | 0 mm | 0.45 m/s, 355° | - | - |
| 1778034881 | 10° C | 73% | 1011.9 hPa | 0 mm | 0.89 m/s, 355° | - | - |
| 1778034581 | 10° C | 73% | 1011.8 hPa | 0 mm | 0.89 m/s, 355° | - | - |
| 1778034280 | 10° C | 73% | 1011.7 hPa | 0 mm | 0.89 m/s, 355° | - | - |
| 1778033981 | 10° C | 73% | 1011.5 hPa | 0 mm | 0 m/s | - | - |
| 1778033681 | 10° C | 69% | 1011.4 hPa | 0 mm | 0 m/s | - | - |
| 1778033379 | 10° C | 69% | 1011.2 hPa | 0 mm | 0 m/s | - | - |
| 1778033079 | 10° C | 69% | 1011 hPa | 0 mm | 0 m/s | - | - |
| 1778032779 | 10° C | 70% | 1011 hPa | 0 mm | 0 m/s | - | - |
| 1778032478 | 10.56° C | 68% | 1010.9 hPa | 0 mm | 0 m/s | - | - |
| 1778032178 | 10.56° C | 67% | 1011 hPa | 0 mm | 0 m/s | - | - |
| 1778031578 | 10.56° C | 64% | 1011.2 hPa | 0 mm | 1.34 m/s, 355° | - | - |
| 1778031277 | 10.56° C | 66% | 1011 hPa | 0 mm | 0.89 m/s, 360° | - | - |
| 1778030978 | 10.56° C | 65% | 1011 hPa | 0 mm | 0.45 m/s, 52° | - | - |
| 1778030677 | 10.56° C | 66% | 1010.9 hPa | 0 mm | 0.89 m/s, 22° | - | - |
| 1778030376 | 10.56° C | 66% | 1010.8 hPa | 0 mm | 0.89 m/s, 343° | - | - |
| 1778030078 | 10.56° C | 67% | 1010.7 hPa | 0 mm | 0 m/s | - | - |
| 1778029776 | 10.56° C | 67% | 1010.5 hPa | 0 mm | 0 m/s | - | - |
| 1778029476 | 10.56° C | 66% | 1010.6 hPa | 0 mm | 0 m/s | - | - |
| 1778029175 | 10.56° C | 65% | 1010.6 hPa | 0 mm | 0 m/s | - | - |
| 1778028875 | 10.56° C | 65% | 1010.5 hPa | 0 mm | 0.45 m/s, 360° | - | - |
| 1778028575 | 10.56° C | 65% | 1010.5 hPa | 0 mm | 0 m/s | - | - |
| 1778028275 | 10.56° C | 66% | 1010.4 hPa | 0 mm | 0.89 m/s, 360° | - | - |
* Rain latest hour (hover to see other rain measurements)
** Current wind speed in m/s (hover to see current wind gust speed)